SBBESBFZ

Guest
Details From SBBE - Val De Caes Intl
To SBFZ - Pinto Martins
Flight Number -
Tags decoded
Created
Modified
Stats Distance 614 nm / 1,136 km
Max Altitude 0 ft / 0 m
Waypoints 2
Social Downloads 0
Likes 0
Share VATSIM

Download

Looking for another format? Having issues loading an existing format? Contact us
Advertisement - Login to hide

Notes

Requested: SBBE BE393 SBFZ Unmatched points: BE393

Route

SBBE SBFZ

ID Type Via Altitude Latitude Longitude Leg Dist Tot Dist Heading (true) Name
O SBBE APT - 0 ft / 0 m -1.38078˚ -48.47619˚ - 0 nm - Val De Caes Intl
O SBFZ APT - 0 ft / 0 m -3.77628˚ -38.53256˚ 613 nm 613 nm 104° / 103° Pinto Martins

Altitude Profile

Advertisement - Login to hide

Weather


0- 5 10 15 20 25 30 35+ Temperature / ° C

Clouds and Precipitation
Forecast for 2017-12-15 00:00 UTC. Updated 2 hours ago

Ground ~20,000 ft ~40,000 ft Winds

SBBE

Details ICAO SBBE (BEL)
Name Val De Caes Intl
Region Brazil
Timezone America/Belem (UTC-3.0)
Stats Elevation 54 ft / 16 m (AMSL)
Location -1.380776° -48.476189°
Runways 2
Magnetic Variation 20.144° W

METAR

SBBE 142000Z 13008KT 5000 -RA SCT010 BKN020 FEW025TCU 25/22 Q1010

Decode

TAF

TAF TAF SBBE 141600Z 1418/1518 36015KT 9999 BKN025 FEW030TCU TN24/1508Z TX31/1514Z BECMG 1419/1421 03010KT FEW035 BECMG 1423/1501 06005KT CAVOK BECMG 1509/1511 05012KT 9999 SCT015 BECMG 1513/1514 36010KT BKN030 BECMG 1516/1517 36015KT SCT035 FEW040TCU RMK PCQ

Decode

Departure Runways

ID Width Length Bearing (true) Bearing (mag) Surface Threshold Offset Overrun Length
02 148 ft / 45 m 6,023 ft / 1,836 m 4.48° 24.62° Asphalt 0 ft / 0 m 194 ft / 59 m
06 148 ft / 45 m 9,215 ft / 2,809 m 45.30° 65.44° Asphalt 0 ft / 0 m 0 ft / 0 m
20 148 ft / 45 m 6,023 ft / 1,836 m 184.48° 204.62° Asphalt 0 ft / 0 m 194 ft / 59 m
24 148 ft / 45 m 9,215 ft / 2,809 m 225.30° 245.44° Asphalt 0 ft / 0 m 197 ft / 60 m

SBFZ

Details ICAO SBFZ (FOR)
Name Pinto Martins
Region Brazil
Timezone America/Fortaleza (UTC-3.0)
Stats Elevation 82 ft / 25 m (AMSL)
Location -3.776283° -38.532556°
Runways 1
Magnetic Variation 21.126° W

METAR

SBFZ 142000Z 08015KT CAVOK 28/22 Q1010

Decode

TAF

TAF SBFZ 141600Z 1418/1518 08011KT 9999 SCT023 TN26/1508Z TX31/1514Z RMK PCN

Decode

Destination Runways

ID Width Length Bearing (true) Bearing (mag) Surface Threshold Offset Overrun Length
13 148 ft / 45 m 8,360 ft / 2,548 m 104.88° 126.01° Asphalt 0 ft / 0 m 195 ft / 59 m
31 148 ft / 45 m 8,360 ft / 2,548 m 284.88° 306.01° Asphalt 0 ft / 0 m 125 ft / 38 m

Approach Navaids

Runway Type Ident Frequency Range Bearing (true) Bearing (mag) Slope Elevation
13 Localiser IFZ 109.30 MHz 18 nm / 33 km 105.09° 126.22° - 82 ft / 25 m (AMSL)
13 Glidescope IFZ 109.30 MHz 10 nm / 19 km 104.88° 126.01° 3.00° 82 ft / 25 m (AMSL)
13 DME IFZ 109.30 MHz 18 nm / 33 km - - - 82 ft / 25 m (AMSL)

Popular Alternatives